Terug naar catalogus

DELTA 2 R/B(2)

LostHEO
NORAD 22051·ROCKET BODY·🇺🇸 United States

Gelanceerd Jul 24, 1992 vanaf Cape Canaveral Space Force Station

Loading…

Volgende Passages (komende 24 uur)

TLE

VerouderdSource: Space-Track

Epoch: Jul 24, 1992, 15:25 UTC

1 22051U 92044C   92206.64253209 -.00026069  15287-4  00000-0 0  9990
2 22051  28.6990 339.6840 9647955 150.7110   1.0439  0.10785260    16

Volg DELTA 2 R/B(2) in realtime met AllMySat

Download on the App Store